TimeEDT,TemperatureF,Dew PointF,Humidity,Sea Level PressureIn,VisibilityMPH,Wind Direction,Wind SpeedMPH,Gust SpeedMPH,PrecipitationIn,Events,Conditions,WindDirDegrees,DateUTC
12:14 AM,57.9,55.8,92,29.52,10.0,SE,9.2,16.1,N/A,Rain,Light Rain,140,2013-04-19 04:14:00
12:34 AM,57.9,55.8,92,29.50,10.0,SSE,8.1,-,N/A,Rain,Rain,150,2013-04-19 04:34:00
12:53 AM,57.9,55.8,92,29.49,10.0,SSE,12.7,-,N/A,Rain,Light Rain,150,2013-04-19 04:53:00
1:14 AM,58.5,56.3,93,29.48,10.0,SSE,8.1,-,N/A,Rain,Rain,160,2013-04-19 05:14:00
1:33 AM,58.8,56.7,93,29.47,10.0,South,8.1,13.8,N/A,Rain,Rain,190,2013-04-19 05:33:00
1:53 AM,59.0,56.8,93,29.45,10.0,South,9.2,-,N/A,Rain,Rain,170,2013-04-19 05:53:00
2:14 AM,59.0,56.8,93,29.44,10.0,South,10.4,-,N/A,Rain,Rain,170,2013-04-19 06:14:00
2:33 AM,59.0,56.8,93,29.42,7.0,South,9.2,-,N/A,Rain,Rain,180,2013-04-19 06:33:00
2:54 AM,59.2,57.0,93,29.43,5.0,SW,15.0,23.0,N/A,Rain,Rain,230,2013-04-19 06:54:00
3:13 AM,55.2,52.9,92,29.44,7.0,WSW,10.4,-,N/A,Rain,Rain,250,2013-04-19 07:13:00
3:34 AM,51.1,48.7,92,29.44,10.0,WSW,13.8,23.0,N/A,Rain,Rain,250,2013-04-19 07:34:00
3:54 AM,48.9,46.8,92,29.46,10.0,West,19.6,24.2,N/A,Rain,Rain,260,2013-04-19 07:54:00
4:13 AM,46.0,43.9,92,29.43,10.0,West,11.5,-,N/A,Rain,Rain,270,2013-04-19 08:13:00
4:34 AM,45.1,43.0,92,29.43,10.0,West,11.5,-,N/A,Rain,Rain,280,2013-04-19 08:34:00
4:54 AM,43.9,41.7,92,29.43,5.0,West,16.1,19.6,N/A,Rain,Rain,280,2013-04-19 08:54:00
5:13 AM,42.8,40.5,91,29.44,10.0,West,19.6,25.3,N/A,Rain,Light Rain,270,2013-04-19 09:13:00
5:34 AM,40.8,38.5,91,29.44,5.0,West,19.6,24.2,N/A,,Drizzle,270,2013-04-19 09:34:00
5:54 AM,40.1,37.8,91,29.44,7.0,West,13.8,21.9,N/A,,Light Drizzle,260,2013-04-19 09:54:00
6:13 AM,40.1,37.8,91,29.45,10.0,WSW,17.3,-,N/A,,Overcast,250,2013-04-19 10:13:00
6:54 AM,37.9,34.3,87,29.46,10.0,West,21.9,26.5,N/A,,Overcast,260,2013-04-19 10:54:00
7:13 AM,37.6,33.8,86,29.46,10.0,West,19.6,27.6,N/A,,Overcast,260,2013-04-19 11:13:00
7:34 AM,37.6,33.4,85,29.46,10.0,West,15.0,21.9,N/A,,Overcast,260,2013-04-19 11:34:00
7:54 AM,37.6,33.1,84,29.47,10.0,WSW,20.7,25.3,N/A,,Overcast,250,2013-04-19 11:54:00
8:13 AM,37.9,32.9,82,29.48,10.0,WSW,21.9,29.9,N/A,,Overcast,240,2013-04-19 12:13:00
8:34 AM,37.6,31.6,79,29.48,10.0,WSW,17.3,27.6,N/A,,Overcast,250,2013-04-19 12:34:00
8:53 AM,37.4,31.3,79,29.48,10.0,WSW,15.0,24.2,N/A,,Overcast,240,2013-04-19 12:53:00
9:13 AM,37.6,31.8,80,29.48,10.0,SW,15.0,19.6,N/A,,Overcast,230,2013-04-19 13:13:00
9:34 AM,37.6,29.5,73,29.49,10.0,WSW,18.4,33.4,N/A,,Overcast,240,2013-04-19 13:34:00
9:53 AM,37.6,29.8,74,29.49,10.0,SW,16.1,29.9,N/A,,Overcast,230,2013-04-19 13:53:00
10:14 AM,37.6,30.2,75,29.49,10.0,SW,16.1,28.8,N/A,,Overcast,230,2013-04-19 14:14:00
10:34 AM,37.6,29.5,73,29.50,10.0,WSW,26.5,32.2,N/A,,Overcast,240,2013-04-19 14:34:00
10:53 AM,37.6,29.1,72,29.51,10.0,WSW,16.1,27.6,N/A,,Overcast,240,2013-04-19 14:53:00
11:14 AM,37.6,28.8,70,29.52,10.0,SW,24.2,31.1,N/A,,Overcast,230,2013-04-19 15:14:00
11:34 AM,37.9,29.5,72,29.52,10.0,SW,20.7,27.6,N/A,,Overcast,230,2013-04-19 15:34:00
11:53 AM,37.6,29.7,73,29.53,10.0,SW,23.0,34.5,N/A,,Overcast,220,2013-04-19 15:53:00
12:14 PM,37.4,28.4,70,29.54,10.0,SW,21.9,35.7,N/A,,Overcast,230,2013-04-19 16:14:00
12:33 PM,38.1,27.9,67,29.54,10.0,SW,24.2,34.5,N/A,,Overcast,230,2013-04-19 16:33:00
12:53 PM,39.0,28.0,65,29.54,10.0,WSW,28.8,38.0,N/A,,Overcast,240,2013-04-19 16:53:00
1:14 PM,38.8,28.2,66,29.53,10.0,SW,17.3,29.9,N/A,,Overcast,230,2013-04-19 17:14:00
1:33 PM,38.1,28.9,70,29.54,10.0,WSW,21.9,28.8,N/A,,Overcast,240,2013-04-19 17:33:00
1:53 PM,39.0,28.8,67,29.54,10.0,WSW,19.6,31.1,N/A,,Overcast,240,2013-04-19 17:53:00
2:14 PM,38.5,30.6,73,29.55,10.0,SW,24.2,29.9,N/A,,Overcast,220,2013-04-19 18:14:00
2:33 PM,38.8,30.0,71,29.55,10.0,SW,23.0,33.4,N/A,,Overcast,220,2013-04-19 18:33:00
2:53 PM,38.7,28.6,67,29.57,10.0,SW,18.4,33.4,N/A,,Overcast,230,2013-04-19 18:53:00
3:14 PM,38.5,28.9,69,29.58,10.0,SW,21.9,28.8,N/A,,Overcast,230,2013-04-19 19:14:00
3:33 PM,38.1,28.9,70,29.59,10.0,SW,24.2,31.1,N/A,,Overcast,220,2013-04-19 19:33:00
3:54 PM,38.1,29.3,71,29.59,10.0,WSW,21.9,32.2,N/A,,Overcast,240,2013-04-19 19:54:00
4:14 PM,37.9,30.0,73,29.60,10.0,WSW,19.6,33.4,N/A,,Overcast,240,2013-04-19 20:14:00
4:33 PM,37.2,31.6,80,29.61,10.0,WSW,16.1,26.5,N/A,Snow,Light Snow,240,2013-04-19 20:33:00
4:54 PM,36.0,31.8,85,29.62,4.0,SW,17.3,24.2,N/A,Snow,Light Snow,230,2013-04-19 20:54:00
5:14 PM,36.0,32.0,86,29.64,10.0,WSW,19.6,28.8,N/A,Snow,Light Snow,240,2013-04-19 21:14:00
5:33 PM,36.9,31.5,81,29.64,10.0,WSW,17.3,29.9,N/A,,Overcast,240,2013-04-19 21:33:00
5:54 PM,37.0,29.8,75,29.64,10.0,WSW,18.4,33.4,N/A,,Overcast,240,2013-04-19 21:54:00
6:13 PM,37.0,30.4,77,29.66,10.0,WSW,18.4,26.5,N/A,,Overcast,250,2013-04-19 22:13:00
6:33 PM,37.0,30.2,76,29.66,10.0,WSW,23.0,26.5,N/A,,Overcast,240,2013-04-19 22:33:00
6:54 PM,36.5,30.0,77,29.68,10.0,WSW,20.7,28.8,N/A,,Overcast,240,2013-04-19 22:54:00
7:13 PM,36.3,30.7,80,29.68,10.0,SW,17.3,20.7,N/A,,Overcast,230,2013-04-19 23:13:00
7:33 PM,36.5,29.8,77,29.69,10.0,SW,16.1,27.6,N/A,,Overcast,230,2013-04-19 23:33:00
7:54 PM,36.5,29.8,77,29.69,10.0,SW,15.0,23.0,N/A,,Overcast,230,2013-04-19 23:54:00
8:13 PM,36.3,29.8,77,29.71,10.0,WSW,17.3,21.9,N/A,,Overcast,240,2013-04-20 00:13:00
8:33 PM,36.0,30.0,79,29.72,10.0,SW,15.0,23.0,N/A,Snow,Light Snow,230,2013-04-20 00:33:00
8:54 PM,35.8,30.4,81,29.72,10.0,SW,12.7,23.0,N/A,Snow,Light Snow,230,2013-04-20 00:54:00
9:13 PM,35.4,30.6,82,29.73,10.0,SW,11.5,18.4,N/A,Snow,Light Snow,230,2013-04-20 01:13:00
9:33 PM,35.4,30.7,83,29.74,10.0,SW,16.1,21.9,N/A,Snow,Light Snow,230,2013-04-20 01:33:00
9:54 PM,34.3,30.9,87,29.75,3.0,WSW,13.8,19.6,N/A,Snow,Light Snow,250,2013-04-20 01:54:00
10:13 PM,33.6,30.9,90,29.76,10.0,WSW,13.8,20.7,N/A,Snow,Light Snow,240,2013-04-20 02:13:00
10:34 PM,33.6,31.1,90,29.76,3.0,WSW,15.0,20.7,N/A,Snow,Light Snow,240,2013-04-20 02:34:00
10:53 PM,33.1,31.1,92,29.76,4.0,WSW,17.3,21.9,N/A,Snow,Light Snow,240,2013-04-20 02:53:00
11:13 PM,33.6,31.1,90,29.76,10.0,WSW,11.5,-,N/A,,Overcast,240,2013-04-20 03:13:00
11:34 PM,33.3,30.6,90,29.76,10.0,WSW,16.1,23.0,N/A,Snow,Light Snow,240,2013-04-20 03:34:00
11:53 PM,33.3,30.6,90,29.77,2.5,West,13.8,-,N/A,Snow,Snow,270,2013-04-20 03:53:00